Time,TemperatureF,DewpointF,PressureIn,WindDirection,WindDirectionDegrees,WindSpeedMPH,WindSpeedGustMPH,Humidity,HourlyPrecipIn,Conditions,Clouds,dailyrainin,SolarRadiationWatts/m^2,SoftwareType,DateUTC
2017-02-24 00:08:00,66.0,63.0,29.67,NE,38,0.0,0.0,90,-99.99,,,-99.99,636.000000,,2017-02-24 05:08:00,
2017-02-24 00:28:00,65.0,62.0,29.67,NE,38,0.0,0.0,91,-99.99,,,-99.99,629.000000,,2017-02-24 05:28:00,
2017-02-24 00:48:00,65.0,62.0,29.67,NE,38,0.0,0.0,91,-99.99,,,-99.99,629.000000,,2017-02-24 05:48:00,
2017-02-24 01:08:00,65.0,62.0,29.68,NE,38,0.0,0.0,91,-99.99,,,-99.99,636.000000,,2017-02-24 06:08:00,
2017-02-24 01:27:00,65.0,62.0,29.68,NE,38,0.0,0.0,91,-99.99,,,-99.99,633.000000,,2017-02-24 06:27:00,
2017-02-24 01:51:00,64.0,61.0,29.68,NE,38,0.0,0.0,91,-99.99,,,-99.99,633.000000,,2017-02-24 06:51:00,
2017-02-24 02:09:00,64.0,61.0,29.67,NE,38,0.0,0.0,91,-99.99,,,-99.99,631.000000,,2017-02-24 07:09:00,
2017-02-24 02:28:00,64.0,62.0,29.67,NE,38,0.0,0.0,92,-99.99,,,-99.99,631.000000,,2017-02-24 07:28:00,
2017-02-24 02:48:00,64.0,62.0,29.67,NE,38,0.0,0.0,92,-99.99,,,-99.99,628.000000,,2017-02-24 07:48:00,
2017-02-24 03:08:00,64.0,62.0,29.67,NE,38,0.0,0.0,92,-99.99,,,-99.99,622.000000,,2017-02-24 08:08:00,
2017-02-24 03:28:00,64.0,62.0,29.66,NE,38,0.0,0.0,92,-99.99,,,-99.99,622.000000,,2017-02-24 08:28:00,
2017-02-24 03:50:00,63.0,61.0,29.65,NE,38,0.0,0.0,92,-99.99,,,-99.99,619.000000,,2017-02-24 08:50:00,
2017-02-24 04:08:00,63.0,61.0,29.65,NE,38,0.0,0.0,92,-99.99,,,-99.99,619.000000,,2017-02-24 09:08:00,
2017-02-24 04:28:00,63.0,61.0,29.66,NE,38,0.0,0.0,92,-99.99,,,-99.99,617.000000,,2017-02-24 09:28:00,
2017-02-24 05:09:00,63.0,61.0,29.67,NE,38,0.0,0.0,93,-99.99,,,-99.99,621.000000,,2017-02-24 10:09:00,
2017-02-24 05:28:00,63.0,61.0,29.68,NE,38,0.0,0.0,93,-99.99,,,-99.99,617.000000,,2017-02-24 10:28:00,
2017-02-24 06:08:00,63.0,61.0,29.70,NE,38,0.0,0.0,93,-99.99,,,-99.99,622.000000,,2017-02-24 11:08:00,
2017-02-24 06:38:00,63.0,61.0,29.70,NE,38,0.0,0.0,93,-99.99,,,-99.99,,,2017-02-24 11:38:00,
2017-02-24 07:08:00,63.0,61.0,29.72,NE,38,0.0,0.0,93,-99.99,,,-99.99,626.000000,,2017-02-24 12:08:00,
2017-02-24 07:28:00,63.0,61.0,29.72,NE,38,0.0,0.0,93,-99.99,,,-99.99,631.000000,,2017-02-24 12:28:00,
2017-02-24 07:50:00,65.0,63.0,29.74,NE,38,0.0,0.0,94,-99.99,,,-99.99,643.000000,,2017-02-24 12:50:00,
2017-02-24 08:08:00,66.0,64.0,29.74,NE,38,0.0,0.0,94,-99.99,,,-99.99,664.000000,,2017-02-24 13:08:00,
2017-02-24 08:28:00,68.0,66.0,29.74,NE,38,0.0,0.0,94,-99.99,,,-99.99,679.000000,,2017-02-24 13:28:00,
2017-02-24 11:28:00,70.0,67.0,29.77,North,5,1.0,12.0,91,-99.99,,,-99.99,566.000000,,2017-02-24 16:28:00,
2017-02-24 12:00:00,73.0,68.0,29.76,NNE,13,-999.9,-999.0,84,-99.99,,,-99.99,568.000000,,2017-02-24 17:00:00,
2017-02-24 12:20:00,74.0,68.0,29.76,North,355,1.0,11.0,81,-99.99,,,-99.99,573.000000,,2017-02-24 17:20:00,
2017-02-24 12:38:00,75.0,67.0,29.75,West,272,0.0,5.0,77,-99.99,,,-99.99,613.000000,,2017-02-24 17:38:00,